Location: Allington
(51.2833°N, 0.5167°E)
Time: 21:33:40
(UTC+00:00)

Daily predictions for brighter satellites

Satellite Brightness Start Highest point End
(mag) Time Altitude Azimuth Time Altitude Azimuth Time Altitude Azimuth
Cosmos 1844 Rocket 3.2 20:52:39 10° NNW 20:58:13 53° NE 21:03:46 10° SE
USA 245 4.1 20:54:26 10° SSE 20:59:08 89° ENE 21:04:53 10° NNW
CARTOSAT-1 3.7 20:55:21 10° SSE 20:59:38 67° ENE 21:03:57 10° N
Cosmos 1025 Rocket 4.4 20:58:07 10° SE 21:01:36 24° E 21:05:05 10° NE
CENTAUR R/B 2.6 20:57:10 10° SSW 21:03:10 75° SE 21:10:25 10° NE
Cosmos 1908 3.9 21:00:06 10° N 21:03:50 42° ENE 21:07:31 10° SE
Cosmos 1726 2.9 21:00:32 10° NNW 21:04:04 49° W 21:07:35 10° S
SL-8 R/B 3.8 21:02:03 10° W 21:06:47 60° S 21:11:30 10° ESE
Cosmos 1975 Rocket 3.5 21:03:12 10° SSE 21:07:21 45° E 21:11:33 10° NNE
Cosmos 2263 Rocket 3.4 21:05:21 10° NW 21:10:33 37° WSW 21:15:44 10° S
Cosmos 1707 2.9 21:10:04 10° SSW 21:13:57 81° W 21:17:53 10° N
Cosmos 1340 4.5 21:11:58 10° SE 21:14:24 17° E 21:16:51 10° NE
CZ-2C R/B 3.9 21:10:13 10° NNE 21:15:00 88° WNW 21:19:48 10° SSW
Cosmos 1953 2.5 21:11:42 10° N 21:15:46 63° ENE 21:19:47 10° SSE
USA 267 3.7 21:13:54 10° E 21:20:21 64° NNE 21:26:50 10° WNW
Cosmos 2100 Rocket 4.1 21:15:13 10° N 21:21:38 77° ENE 21:27:59 10° SSE
Cosmos 1461 2.9 21:17:31 10° NW 21:21:51 79° NE 21:25:52 10° SE
ARIANE 5 R/B 2.8 21:21:06 10° S 21:25:32 73° WSW 21:30:03 10° NNW
GEOS 3 Rocket 4.2 21:20:38 10° ESE 21:25:51 55° NE 21:31:04 10° NW
Cosmos 2333 Rocket 3.5 21:22:08 10° SSE 21:26:22 22° ESE 21:30:36 10° NE
In-Cosmos 22 4.1 21:21:22 10° S 21:26:39 84° E 21:31:58 10° NNE
Cosmos 405 4.0 21:30:12 10° N 21:33:23 32° ENE 21:36:09 12° SE
Aureole 1 Rocket 4.0 21:32:38 10° NNW 21:38:04 89° ENE 21:44:46 12° SSE
Cosmos 1844 3.7 21:33:12 10° NNW 21:38:49 81° ENE 21:43:57 12° SSE
Cosmos 1452 Rocket 3.5 21:33:37 10° SSW 21:38:54 86° ESE 21:44:13 10° NNE
ATLAS CENTAUR R/B 2.0 21:35:53 10° NW 21:40:03 53° NE 21:44:28 10° ESE
Cosmos 2173 Rocket 4.1 21:36:32 10° N 21:42:56 84° W 21:49:20 10° S
Cosmos 2016 Rocket 4.0 21:39:26 10° N 21:45:34 73° ENE 21:51:13 12° SSE
Cosmos 2219 Rocket 3.3 21:41:32 12° SSE 21:45:37 26° ESE 21:50:11 10° NE
Cosmos 1544 Rocket 3.6 21:43:02 10° N 21:47:32 86° E 21:51:34 13° S
Cosmos 1900 4.3 21:43:40 10° NW 21:48:37 83° NE 21:52:55 13° SE
SPOT 5 3.3 21:44:11 10° S 21:49:19 63° WSW 21:54:15 10° NNW
Cosmos 1455 Rocket 3.7 21:48:17 10° NNW 21:52:38 54° W 21:56:59 10° S
Cosmos 1626 2.1 21:50:10 11° S 21:53:37 69° E 21:57:19 10° NNE
KORONAS-FOTON 4.2 21:52:13 10° SSW 21:55:59 64° WNW 21:59:46 10° N
Cosmos 1725 Rocket 4.0 21:50:00 10° N 21:56:13 75° E 22:01:41 14° SSE
Meteor 2-10 Rocket 4.4 21:53:02 10° N 21:57:51 38° ENE 22:01:54 13° SE
H-2A R/B 3.5 21:54:58 10° NNE 21:59:02 61° ESE 22:02:40 12° S
BREEZE-M DEB (TANK) 3.2 21:59:12 10° SW 22:01:57 48° SSE 22:08:42 10° E
NOSS 3-2 (C) 3.9 21:57:32 10° WSW 22:03:20 66° NW 22:10:07 10° NE
SL-16 R/B 2.9 21:57:53 10° SW 22:03:30 59° NW 22:09:08 10° NNE
Lacrosse 5 3.6 22:00:07 10° W 22:03:48 21° SW 22:07:23 10° S
Genesis I 4.2 22:02:12 10° WSW 22:06:00 51° NW 22:09:54 10° NE
Terra 2.2 22:01:47 12° S 22:06:09 60° W 22:10:53 10° NNW
FALCON 9 DEB 3.7 22:03:08 10° SSW 22:06:15 33° SSE 22:09:22 10° E
Cosmos 2360 Rocket 2.2 22:00:42 10° SSW 22:06:20 79° ESE 22:12:00 10° NNE
Cosmos 2322 Rocket 2.6 22:01:18 10° SW 22:06:59 68° WNW 22:12:43 10° NNE
Cosmos 1331 Rocket 4.0 22:01:51 10° SSW 22:07:04 72° ESE 22:12:21 10° NNE
Cosmos 1802 Rocket 4.2 22:00:58 10° NNW 22:07:11 71° W 22:13:09 11° S
ERS-1 Rocket 3.9 22:05:01 10° S 22:09:47 42° W 22:14:36 10° NNW
ATLAS 3B R/B 3.0 22:06:26 10° S 22:12:30 42° ESE 22:18:46 10° NE
Cosmos 1455 4.0 22:13:54 10° NNE 22:16:57 22° ENE 22:19:32 12° ESE
COSMOS 2428 3.4 22:13:36 16° SSE 22:17:38 36° ESE 22:22:49 10° NE
Cosmos 1867 4.0 22:12:42 10° NW 22:18:09 59° NE 22:23:22 11° ESE
Cosmos 1674 4.2 22:17:27 10° SW 22:20:52 34° WNW 22:24:18 10° N
BREEZE-M DEB (TANK) 2.6 22:18:11 10° SW 22:20:52 40° SSE 22:26:45 10° E
Cosmos 2322 3.9 22:16:36 12° S 22:21:40 52° ESE 22:27:09 10° NE
Cosmos 1536 Rocket 3.6 22:18:34 15° S 22:22:16 78° E 22:26:45 10° NNE
Cosmos 1300 2.7 22:20:16 10° NNW 22:24:05 76° W 22:26:42 19° S
Cosmos 1302 Rocket 4.2 22:20:04 14° S 22:24:23 54° ESE 22:29:31 10° NNE
DNEPR-1 R/B 3.5 22:23:06 10° NW 22:27:19 68° SW 22:30:14 20° SSE
USA 215 3.4 22:21:29 10° ENE 22:27:51 52° SE 22:34:11 10° SW
Cosmos 2278 Rocket 2.9 22:22:21 10° NNW 22:27:52 49° NE 22:32:55 12° SE
Cosmos 1346 Rocket 3.7 22:27:17 20° SE 22:29:26 34° E 22:33:06 10° NNE
Cosmos 389 Rocket 2.8 22:31:33 10° N 22:34:55 51° ENE 22:36:46 23° SE
Meteor 2-5 Rocket 3.7 22:30:33 14° S 22:35:17 81° E 22:40:55 10° NNE
Cosmos 1025 Rocket 4.1 22:34:47 10° SW 22:38:58 43° WNW 22:43:10 10° N
Lacrosse 5 rocket 1.2 22:35:34 10° SW 22:39:03 45° SE 22:42:30 10° ENE
Cosmos 1844 Rocket 3.9 22:36:54 10° NW 22:41:54 33° WSW 22:46:06 14° SSW
FALCON 9 DEB 4.5 22:47:10 19° ESE 22:47:10 19° ESE 22:48:42 10° E
Cosmos 2228 3.0 22:41:49 10° N 22:46:15 84° E 22:49:02 22° SSE
Spot 4 3.8 22:44:45 21° SSE 22:48:01 82° ENE 22:52:49 10° NNW
Cosmos 1340 3.5 22:46:16 12° SSW 22:49:37 46° WNW 22:53:17 10° N
Cosmos 1486 Rocket 4.0 22:47:39 10° NNW 22:52:56 88° WSW 22:56:26 21° SSE
CENTAUR R/B 4.1 22:48:19 10° W 22:54:28 43° NNW 23:01:46 10° NE
FALCON 9 DEB 4.3 22:55:40 22° ESE 22:55:40 22° ESE 22:57:30 10° E
Cosmos 2333 4.4 22:54:50 10° SW 23:00:36 76° WNW 23:06:22 10° NNE
COBE Rocket 4.0 22:59:36 22° SSE 23:02:59 79° ENE 23:07:58 10° N
USA 267 3.3 22:57:24 13° SE 23:03:23 70° SW 23:09:56 10° WNW
Cosmos 2058 Rocket 3.5 22:59:29 10° N 23:03:53 53° ENE 23:06:34 22° SE
GEOS 3 Rocket 4.3 23:00:45 21° S 23:04:00 42° SW 23:09:05 10° NW
Cosmos 1354 Rocket 4.3 22:59:40 10° NNW 23:05:00 64° ENE 23:08:54 18° SE
Cosmos 1980 4.5 23:05:28 21° SSE 23:08:31 36° ESE 23:13:40 10° NE
Cosmos 2233 Rocket 4.5 23:02:45 10° NNW 23:08:42 53° W 23:13:22 17° SSW
Cosmos 2333 Rocket 2.4 23:04:17 10° SW 23:10:01 78° WNW 23:15:48 10° NNE
Cosmos 968 Rocket 3.9 23:05:32 10° NNW 23:10:29 51° WSW 23:13:35 22° S
Cosmos 1992 Rocket 4.1 23:11:12 22° S 23:14:31 61° ESE 23:19:42 10° NNE
Cosmos 1943 Rocket 3.8 23:11:49 10° NNW 23:16:38 29° NE 23:21:26 10° ESE
Cosmos 1726 Rocket 3.6 23:12:16 10° NNW 23:16:45 76° W 23:19:18 25° S
Cosmos 1513 Rocket 4.5 23:11:19 10° N 23:17:25 81° E 23:21:36 22° SSE
ATLAS CENTAUR R/B 2.8 23:15:03 10° WNW 23:18:46 28° WSW 23:20:39 21° SSW
Meteor 1-24 Rocket 4.3 23:22:55 13° SW 23:27:35 50° WNW 23:32:56 10° N
Cosmos 1184 Rocket 3.1 23:27:00 34° SSE 23:28:05 52° E 23:31:17 10° NNE
Cosmos 2219 Rocket 2.5 23:23:28 10° SW 23:29:08 66° NW 23:34:49 10° NNE
Cosmos 1606 Rocket 4.3 23:26:00 10° NNW 23:30:17 45° W 23:32:50 22° SSW
ALOS 2 2.7 23:28:20 26° S 23:30:46 69° WSW 23:35:09 10° NNW
MTI 4.1 23:28:53 10° NNE 23:31:51 47° E 23:32:42 35° SSE
NOSS 0 Rocket 4.0 23:30:01 20° SSW 23:34:22 66° ESE 23:40:34 10° NE
Cosmos 1892 Rocket 3.5 23:32:13 25° S 23:34:46 87° W 23:39:15 10° N
SL-16 R/B 3.7 23:34:20 16° SE 23:37:04 22° E 23:41:17 10° NE
SJ 16-02 2.8 23:34:51 10° N 23:38:48 31° ENE 23:42:44 10° ESE
SAR-Lupe-2 3.8 23:35:34 10° NNE 23:39:08 58° ESE 23:40:35 31° SSE
Cosmos 2237 Rocket 2.3 23:39:03 23° S 23:42:29 58° ESE 23:48:01 10° NE
Iridium 2 4.4 23:40:37 22° SW 23:42:42 45° W 23:46:20 10° N
FALCON 9 DEB 3.2 23:39:33 10° WSW 23:42:58 80° NNW 23:46:22 10° ENE
Meteor 1-21 Rocket 4.2 23:45:48 23° S 23:49:22 80° E 23:55:07 10° NNE
Cosmos 2360 Rocket 4.2 23:46:14 10° W 23:50:58 27° NW 23:55:43 10° NNE
Cosmos 1464 Rocket 4.2 23:44:52 10° NNW 23:51:09 67° W 23:55:24 22° S
Cosmos 2369 Rocket 3.9 23:46:22 10° NNW 23:51:24 30° NE 23:56:25 10° ESE
Nimbus 7 Rocket 4.5 23:45:23 10° NNE 23:51:28 78° ESE 23:55:33 22° S
Cosmos 1503 Rocket 4.4 23:46:34 10° NNW 23:51:47 52° WSW 23:54:50 24° S
Cosmos 192 4.5 23:49:09 25° S 23:51:53 62° ESE 23:56:46 10° NNE
PSLV R/B 4.4 23:48:12 10° NNE 23:52:13 38° E 23:54:21 23° SSE
Cosmos 1455 3.1 23:49:06 10° NNW 23:52:40 37° W 23:54:24 24° SW
USA 32 4.3 23:48:19 10° N 23:53:33 64° E 23:56:56 22° SSE
